Time,TemperatureF,DewpointF,PressureIn,WindDirection,WindDirectionDegrees,WindSpeedMPH,WindSpeedGustMPH,Humidity,HourlyPrecipIn,Conditions,Clouds,dailyrainin,SoftwareType,DateUTC
2013-11-12 00:02:00,81.4,76.5,29.93,North,8,5.8,5.8,85,0.00,RA,,0.00,WeatherDisplay:10.37,2013-11-12 06:02:00,
2013-11-12 00:07:00,81.2,76.3,29.93,North,355,4.0,4.0,85,0.00,RA,,0.00,WeatherDisplay:10.37,2013-11-12 06:07:00,
2013-11-12 00:12:00,80.9,76.3,29.93,NNW,342,3.5,3.5,86,0.00,CLR,,0.00,WeatherDisplay:10.37,2013-11-12 06:12:00,
2013-11-12 00:17:00,80.4,75.8,29.93,NNW,334,1.1,1.1,86,0.00,CLR,,0.00,WeatherDisplay:10.37,2013-11-12 06:17:00,
2013-11-12 00:22:00,80.1,75.9,29.93,North,353,3.5,3.5,87,0.00,CLR,,0.00,WeatherDisplay:10.37,2013-11-12 06:22:00,
2013-11-12 00:27:00,79.8,75.9,29.93,North,354,8.1,8.1,88,0.00,CLR,,0.00,WeatherDisplay:10.37,2013-11-12 06:27:00,
2013-11-12 00:32:00,79.6,75.7,29.93,NNW,339,8.1,8.1,88,0.00,CLR,,0.00,WeatherDisplay:10.37,2013-11-12 06:32:00,
2013-11-12 00:37:00,79.3,75.8,29.93,NNW,330,2.0,2.0,89,0.00,CLR,,0.00,WeatherDisplay:10.37,2013-11-12 06:37:00,
2013-11-12 00:42:00,79.2,75.7,29.92,NNW,329,4.6,4.6,89,0.00,CLR,,0.00,WeatherDisplay:10.37,2013-11-12 06:42:00,
2013-11-12 00:47:00,79.1,75.9,29.92,NW,314,4.6,4.6,90,0.00,CLR,,0.00,WeatherDisplay:10.37,2013-11-12 06:47:00,
2013-11-12 00:52:00,79.0,75.8,29.92,North,351,2.3,2.3,90,0.00,CLR,,0.00,WeatherDisplay:10.37,2013-11-12 06:52:00,
2013-11-12 00:57:00,78.9,75.7,29.92,NNW,333,3.5,0.0,90,0.00,CLR,,0.00,WeatherDisplay:10.37,2013-11-12 06:57:00,
2013-11-12 01:02:00,78.9,75.7,29.92,North,352,0.0,0.3,90,0.00,CLR,,0.00,WeatherDisplay:10.37,2013-11-12 07:02:00,
2013-11-12 01:07:00,78.9,76.0,29.92,North,5,0.0,0.0,91,0.00,CLR,,0.00,WeatherDisplay:10.37,2013-11-12 07:07:00,
2013-11-12 01:12:00,79.9,77.0,29.91,NE,46,6.9,6.9,91,0.00,CLR,,0.00,WeatherDisplay:10.37,2013-11-12 07:12:00,
2013-11-12 01:17:00,80.7,77.2,29.91,ENE,63,10.4,10.4,89,0.00,CLR,,0.00,WeatherDisplay:10.37,2013-11-12 07:17:00,
2013-11-12 01:22:00,81.5,77.3,29.91,ENE,71,10.4,10.4,87,0.00,CLR,,0.00,WeatherDisplay:10.37,2013-11-12 07:22:00,
2013-11-12 01:27:00,80.8,75.9,29.91,East,81,17.3,17.3,85,0.00,CLR,,0.00,WeatherDisplay:10.37,2013-11-12 07:27:00,
2013-11-12 01:32:00,80.2,74.9,29.91,ENE,65,12.7,12.7,84,0.00,CLR,,0.01,WeatherDisplay:10.37,2013-11-12 07:32:00,
2013-11-12 01:37:00,80.4,75.5,29.90,ENE,64,6.9,6.9,85,0.01,RA,,0.01,WeatherDisplay:10.37,2013-11-12 07:37:00,
2013-11-12 01:42:00,80.5,75.2,29.91,ENE,67,9.2,9.2,84,0.01,RA,,0.01,WeatherDisplay:10.37,2013-11-12 07:42:00,
2013-11-12 01:47:00,80.6,75.3,29.91,ENE,67,7.0,7.0,84,0.01,CLR,,0.01,WeatherDisplay:10.37,2013-11-12 07:47:00,
2013-11-12 01:52:00,80.7,74.0,29.91,NE,53,6.9,6.9,80,0.01,CLR,,0.01,WeatherDisplay:10.37,2013-11-12 07:52:00,
2013-11-12 01:57:00,80.9,73.8,29.90,NNE,27,3.5,3.5,79,0.01,CLR,,0.01,WeatherDisplay:10.37,2013-11-12 07:57:00,
2013-11-12 02:02:00,80.5,73.4,29.90,NNE,29,0.0,0.0,79,0.01,CLR,,0.01,WeatherDisplay:10.37,2013-11-12 08:02:00,
2013-11-12 02:07:00,80.5,73.8,29.90,NE,52,3.5,3.5,80,0.01,CLR,,0.01,WeatherDisplay:10.37,2013-11-12 08:07:00,
2013-11-12 02:12:00,80.6,74.6,29.90,NNE,25,4.6,0.0,82,0.01,CLR,,0.01,WeatherDisplay:10.37,2013-11-12 08:12:00,
2013-11-12 02:17:00,80.6,74.6,29.90,NE,46,0.0,0.0,82,0.01,CLR,,0.01,WeatherDisplay:10.37,2013-11-12 08:17:00,
2013-11-12 02:22:00,80.9,75.6,29.90,ENE,75,12.0,12.0,84,0.01,CLR,,0.01,WeatherDisplay:10.37,2013-11-12 08:22:00,
2013-11-12 02:27:00,81.5,77.3,29.90,East,96,10.4,10.4,87,0.01,CLR,,0.01,WeatherDisplay:10.37,2013-11-12 08:27:00,
2013-11-12 02:32:00,81.2,77.3,29.90,East,94,10.4,10.4,88,0.01,CLR,,0.01,WeatherDisplay:10.37,2013-11-12 08:32:00,
2013-11-12 02:37:00,81.1,77.2,29.90,East,98,8.1,8.1,88,0.00,CLR,,0.01,WeatherDisplay:10.37,2013-11-12 08:37:00,
2013-11-12 02:42:00,81.2,77.3,29.90,East,89,10.4,10.4,88,0.00,CLR,,0.01,WeatherDisplay:10.37,2013-11-12 08:42:00,
2013-11-12 02:47:00,81.1,76.9,29.90,East,96,10.4,10.4,87,0.00,CLR,,0.01,WeatherDisplay:10.37,2013-11-12 08:47:00,
2013-11-12 02:52:00,81.2,77.0,29.90,East,92,10.4,10.4,87,0.00,CLR,,0.01,WeatherDisplay:10.37,2013-11-12 08:52:00,
2013-11-12 02:57:00,81.4,77.5,29.90,East,86,8.1,8.1,88,0.00,CLR,,0.01,WeatherDisplay:10.37,2013-11-12 08:57:00,
2013-11-12 03:02:00,81.4,77.5,29.90,East,82,10.4,10.4,88,0.00,CLR,,0.01,WeatherDisplay:10.37,2013-11-12 09:02:00,
2013-11-12 03:07:00,81.5,77.6,29.90,East,85,8.1,8.1,88,0.00,CLR,,0.01,WeatherDisplay:10.37,2013-11-12 09:07:00,
2013-11-12 03:12:00,81.4,77.2,29.90,ENE,69,8.1,8.1,87,0.00,CLR,,0.01,WeatherDisplay:10.37,2013-11-12 09:12:00,
2013-11-12 03:17:00,81.6,77.7,29.90,ENE,72,7.0,7.0,88,0.00,CLR,,0.01,WeatherDisplay:10.37,2013-11-12 09:17:00,
2013-11-12 03:22:00,81.5,77.3,29.90,ENE,72,8.1,8.1,87,0.00,CLR,,0.01,WeatherDisplay:10.37,2013-11-12 09:22:00,
2013-11-12 03:27:00,81.5,76.6,29.90,ENE,69,6.9,6.9,85,0.00,CLR,,0.01,WeatherDisplay:10.37,2013-11-12 09:27:00,
2013-11-12 03:32:00,81.6,75.6,29.90,ENE,71,8.1,8.1,82,0.00,CLR,,0.01,WeatherDisplay:10.37,2013-11-12 09:32:00,
2013-11-12 03:38:00,82.0,76.3,29.90,ENE,69,6.9,6.9,83,0.00,CLR,,0.01,WeatherDisplay:10.37,2013-11-12 09:38:00,
2013-11-12 03:42:00,81.8,76.1,29.89,ENE,74,5.0,5.0,83,0.00,CLR,,0.01,WeatherDisplay:10.37,2013-11-12 09:42:00,
2013-11-12 03:48:00,81.9,76.6,29.90,ENE,77,7.0,7.0,84,0.00,CLR,,0.01,WeatherDisplay:10.37,2013-11-12 09:48:00,
2013-11-12 03:53:00,82.0,76.7,29.89,ENE,78,9.2,9.2,84,0.00,CLR,,0.01,WeatherDisplay:10.37,2013-11-12 09:53:00,
2013-11-12 03:58:00,81.9,76.6,29.90,ENE,74,9.2,9.2,84,0.00,CLR,,0.01,WeatherDisplay:10.37,2013-11-12 09:58:00,
2013-11-12 04:03:00,81.8,76.5,29.90,East,83,11.5,11.5,84,0.00,CLR,,0.01,WeatherDisplay:10.37,2013-11-12 10:03:00,
2013-11-12 04:08:00,81.8,76.5,29.90,ENE,78,10.4,10.4,84,0.00,CLR,,0.01,WeatherDisplay:10.37,2013-11-12 10:08:00,
2013-11-12 04:13:00,81.7,76.4,29.90,East,81,11.5,11.5,84,0.00,CLR,,0.01,WeatherDisplay:10.37,2013-11-12 10:13:00,
2013-11-12 04:18:00,81.7,76.4,29.90,East,83,10.4,10.4,84,0.00,CLR,,0.01,WeatherDisplay:10.37,2013-11-12 10:18:00,
2013-11-12 04:23:00,81.6,76.3,29.91,East,84,10.4,10.4,84,0.00,CLR,,0.01,WeatherDisplay:10.37,2013-11-12 10:23:00,
2013-11-12 04:28:00,81.7,77.1,29.91,East,85,11.5,11.5,86,0.00,CLR,,0.01,WeatherDisplay:10.37,2013-11-12 10:28:00,
2013-11-12 04:33:00,81.5,77.3,29.91,East,85,11.5,11.5,87,0.00,CLR,,0.01,WeatherDisplay:10.37,2013-11-12 10:33:00,
2013-11-12 04:38:00,81.4,77.5,29.91,East,81,10.0,10.0,88,0.00,CLR,,0.01,WeatherDisplay:10.37,2013-11-12 10:38:00,
2013-11-12 04:43:00,81.2,77.0,29.91,East,82,8.1,8.1,87,0.00,CLR,,0.01,WeatherDisplay:10.37,2013-11-12 10:43:00,
2013-11-12 04:48:00,81.1,77.2,29.91,East,80,8.1,8.1,88,0.00,CLR,,0.01,WeatherDisplay:10.37,2013-11-12 10:48:00,
2013-11-12 04:53:00,81.2,77.0,29.91,ENE,72,9.2,9.2,87,0.00,CLR,,0.01,WeatherDisplay:10.37,2013-11-12 10:53:00,
2013-11-12 04:58:00,81.1,76.9,29.91,ENE,74,8.1,8.1,87,0.00,CLR,,0.01,WeatherDisplay:10.37,2013-11-12 10:58:00,
2013-11-12 05:03:00,81.2,77.0,29.91,ENE,65,7.0,7.0,87,0.00,CLR,,0.01,WeatherDisplay:10.37,2013-11-12 11:03:00,
2013-11-12 05:08:00,81.2,76.6,29.91,ENE,69,8.1,8.1,86,0.00,CLR,,0.01,WeatherDisplay:10.37,2013-11-12 11:08:00,
2013-11-12 05:13:00,81.4,76.5,29.92,ENE,75,6.9,6.9,85,0.00,CLR,,0.01,WeatherDisplay:10.37,2013-11-12 11:13:00,
2013-11-12 05:18:00,81.6,76.3,29.92,ENE,73,8.1,8.1,84,0.00,CLR,,0.01,WeatherDisplay:10.37,2013-11-12 11:18:00,
2013-11-12 05:23:00,81.7,76.4,29.92,ENE,68,7.0,7.0,84,0.00,CLR,,0.01,WeatherDisplay:10.37,2013-11-12 11:23:00,
2013-11-12 05:28:00,81.6,75.9,29.92,ENE,66,9.2,9.2,83,0.00,CLR,,0.01,WeatherDisplay:10.37,2013-11-12 11:28:00,
2013-11-12 05:33:00,81.8,76.5,29.92,ENE,77,8.1,8.1,84,0.00,CLR,,0.01,WeatherDisplay:10.37,2013-11-12 11:33:00,
2013-11-12 05:38:00,81.9,76.2,29.92,East,84,10.0,10.0,83,0.00,CLR,,0.01,WeatherDisplay:10.37,2013-11-12 11:38:00,
2013-11-12 05:43:00,81.9,75.9,29.92,ENE,76,9.2,9.2,82,0.00,CLR,,0.01,WeatherDisplay:10.37,2013-11-12 11:43:00,
2013-11-12 05:48:00,82.0,76.0,29.93,ENE,77,9.2,9.2,82,0.00,CLR,,0.01,WeatherDisplay:10.37,2013-11-12 11:48:00,
2013-11-12 05:53:00,82.0,76.0,29.93,ENE,59,11.5,11.5,82,0.00,CLR,,0.01,WeatherDisplay:10.37,2013-11-12 11:53:00,
2013-11-12 05:58:00,81.9,76.2,29.93,ENE,69,11.5,11.5,83,0.00,CLR,,0.01,WeatherDisplay:10.37,2013-11-12 11:58:00,
2013-11-12 06:03:00,81.9,76.2,29.93,ENE,67,11.5,11.5,83,0.00,CLR,,0.01,WeatherDisplay:10.37,2013-11-12 12:03:00,
2013-11-12 06:08:00,81.9,76.2,29.93,ENE,73,11.5,11.5,83,0.00,CLR,,0.01,WeatherDisplay:10.37,2013-11-12 12:08:00,
2013-11-12 06:13:00,81.9,76.2,29.93,ENE,67,11.5,11.5,83,0.00,CLR,,0.01,WeatherDisplay:10.37,2013-11-12 12:13:00,
2013-11-12 06:18:00,81.8,76.1,29.94,ENE,74,10.4,10.4,83,0.00,CLR,,0.01,WeatherDisplay:10.37,2013-11-12 12:18:00,
2013-11-12 06:23:00,81.7,76.4,29.94,ENE,66,9.2,9.2,84,0.00,CLR,,0.01,WeatherDisplay:10.37,2013-11-12 12:23:00,
2013-11-12 06:28:00,81.6,75.9,29.94,ENE,75,10.4,10.4,83,0.00,CLR,,0.01,WeatherDisplay:10.37,2013-11-12 12:28:00,
2013-11-12 06:33:00,81.8,76.5,29.95,ENE,67,10.4,10.4,84,0.00,CLR,,0.01,WeatherDisplay:10.37,2013-11-12 12:33:00,
2013-11-12 06:38:00,81.6,76.3,29.95,NE,54,10.4,10.4,84,0.00,CLR,,0.01,WeatherDisplay:10.37,2013-11-12 12:38:00,
2013-11-12 06:43:00,81.7,76.4,29.95,ENE,66,9.2,9.2,84,0.00,CLR,,0.01,WeatherDisplay:10.37,2013-11-12 12:43:00,
2013-11-12 06:48:00,81.8,76.5,29.95,ENE,69,9.2,9.2,84,0.00,CLR,,0.01,WeatherDisplay:10.37,2013-11-12 12:48:00,
2013-11-12 06:53:00,81.8,76.8,29.95,ENE,63,10.4,10.4,85,0.00,CLR,,0.01,WeatherDisplay:10.37,2013-11-12 12:53:00,
2013-11-12 06:58:00,81.8,76.8,29.95,ENE,70,11.5,11.5,85,0.00,CLR,,0.01,WeatherDisplay:10.37,2013-11-12 12:58:00,
2013-11-12 07:03:00,81.8,76.8,29.96,ENE,67,11.5,11.5,85,0.00,CLR,,0.01,WeatherDisplay:10.37,2013-11-12 13:03:00,
2013-11-12 07:08:00,81.9,76.9,29.96,ENE,65,6.9,6.9,85,0.00,CLR,,0.01,WeatherDisplay:10.37,2013-11-12 13:08:00,
2013-11-12 07:13:00,81.9,76.9,29.96,ENE,62,9.2,9.2,85,0.00,CLR,,0.01,WeatherDisplay:10.37,2013-11-12 13:13:00,
2013-11-12 07:18:00,81.8,76.8,29.96,ENE,70,9.2,9.2,85,0.00,CLR,,0.01,WeatherDisplay:10.37,2013-11-12 13:18:00,
2013-11-12 07:23:00,81.9,76.9,29.96,ENE,69,8.1,8.1,85,0.00,CLR,,0.01,WeatherDisplay:10.37,2013-11-12 13:23:00,
2013-11-12 07:28:00,81.9,76.9,29.96,NE,55,8.1,8.1,85,0.00,CLR,,0.01,WeatherDisplay:10.37,2013-11-12 13:28:00,
2013-11-12 07:33:00,82.0,76.7,29.96,ENE,61,8.1,8.1,84,0.00,CLR,,0.01,WeatherDisplay:10.37,2013-11-12 13:33:00,
2013-11-12 07:38:00,82.1,76.4,29.96,ENE,65,9.2,9.2,83,0.00,CLR,,0.01,WeatherDisplay:10.37,2013-11-12 13:38:00,
2013-11-12 07:43:00,82.1,76.4,29.96,ENE,72,10.4,10.4,83,0.00,CLR,,0.01,WeatherDisplay:10.37,2013-11-12 13:43:00,
2013-11-12 07:48:00,82.2,76.5,29.97,ENE,75,10.4,10.4,83,0.00,CLR,,0.01,WeatherDisplay:10.37,2013-11-12 13:48:00,
2013-11-12 07:53:00,82.1,76.1,29.97,ENE,74,10.4,10.4,82,0.00,CLR,,0.01,WeatherDisplay:10.37,2013-11-12 13:53:00,
2013-11-12 07:58:00,82.2,76.2,29.97,East,79,10.4,10.4,82,0.00,CLR,,0.01,WeatherDisplay:10.37,2013-11-12 13:58:00,
2013-11-12 08:03:00,82.4,76.7,29.98,ENE,74,11.0,11.0,83,0.00,CLR,,0.01,WeatherDisplay:10.37,2013-11-12 14:03:00,
2013-11-12 08:08:00,82.4,76.7,29.98,East,80,9.2,9.2,83,0.00,CLR,,0.01,WeatherDisplay:10.37,2013-11-12 14:08:00,
2013-11-12 08:13:00,82.3,76.6,29.98,East,79,11.5,11.5,83,0.00,CLR,,0.01,WeatherDisplay:10.37,2013-11-12 14:13:00,
2013-11-12 08:18:00,82.4,77.4,29.99,ENE,77,9.2,9.2,85,0.00,CLR,,0.01,WeatherDisplay:10.37,2013-11-12 14:18:00,
2013-11-12 08:23:00,82.3,77.3,29.98,East,81,10.4,10.4,85,0.00,CLR,,0.01,WeatherDisplay:10.37,2013-11-12 14:23:00,
2013-11-12 08:28:00,82.3,77.0,29.99,East,82,9.2,9.2,84,0.00,CLR,,0.01,WeatherDisplay:10.37,2013-11-12 14:28:00,
2013-11-12 08:33:00,82.3,77.3,29.99,ENE,65,9.2,9.2,85,0.00,CLR,,0.01,WeatherDisplay:10.37,2013-11-12 14:33:00,
2013-11-12 08:38:00,82.3,77.0,29.99,ENE,65,9.0,9.0,84,0.00,CLR,,0.01,WeatherDisplay:10.37,2013-11-12 14:38:00,
2013-11-12 08:43:00,81.8,76.8,29.99,ENE,72,11.5,11.5,85,0.00,CLR,,0.01,WeatherDisplay:10.37,2013-11-12 14:43:00,
2013-11-12 08:48:00,81.7,77.1,29.99,ENE,66,10.4,10.4,86,0.00,CLR,,0.01,WeatherDisplay:10.37,2013-11-12 14:48:00,
2013-11-12 08:54:00,81.4,76.5,29.99,ENE,63,10.4,10.4,85,0.00,CLR,,0.01,WeatherDisplay:10.37,2013-11-12 14:54:00,
2013-11-12 08:59:00,81.0,75.7,29.99,ENE,65,8.1,8.1,84,0.00,CLR,,0.01,WeatherDisplay:10.37,2013-11-12 14:59:00,
2013-11-12 09:04:00,81.1,75.4,29.99,ENE,75,9.2,9.2,83,0.00,CLR,,0.01,WeatherDisplay:10.37,2013-11-12 15:04:00,
2013-11-12 09:09:00,81.4,75.7,29.99,East,79,11.5,11.5,83,0.00,CLR,,0.01,WeatherDisplay:10.37,2013-11-12 15:09:00,
2013-11-12 09:14:00,81.6,75.9,29.99,East,83,11.5,11.5,83,0.00,CLR,,0.01,WeatherDisplay:10.37,2013-11-12 15:14:00,
2013-11-12 09:19:00,81.8,76.1,29.98,East,81,11.5,11.5,83,0.00,CLR,,0.01,WeatherDisplay:10.37,2013-11-12 15:19:00,
2013-11-12 09:24:00,81.8,76.1,29.98,East,80,11.5,11.5,83,0.00,CLR,,0.01,WeatherDisplay:10.37,2013-11-12 15:24:00,
2013-11-12 09:29:00,81.9,76.6,29.98,ENE,77,9.2,9.2,84,0.00,CLR,,0.01,WeatherDisplay:10.37,2013-11-12 15:29:00,
2013-11-12 09:34:00,82.0,76.7,29.98,ENE,74,9.2,9.2,84,0.00,CLR,,0.01,WeatherDisplay:10.37,2013-11-12 15:34:00,
2013-11-12 09:39:00,81.9,75.9,29.98,ENE,75,10.4,10.4,82,0.00,CLR,,0.01,WeatherDisplay:10.37,2013-11-12 15:39:00,
2013-11-12 09:44:00,82.0,75.2,29.98,ENE,76,10.4,10.4,80,0.00,CLR,,0.01,WeatherDisplay:10.37,2013-11-12 15:44:00,
2013-11-12 09:49:00,82.0,76.0,29.98,ENE,65,9.2,9.2,82,0.00,CLR,,0.01,WeatherDisplay:10.37,2013-11-12 15:49:00,
2013-11-12 09:54:00,82.0,76.3,29.98,ENE,71,9.2,9.2,83,0.00,CLR,,0.01,WeatherDisplay:10.37,2013-11-12 15:54:00,
2013-11-12 09:59:00,82.0,76.3,29.98,East,81,9.2,9.2,83,0.00,CLR,,0.01,WeatherDisplay:10.37,2013-11-12 15:59:00,
2013-11-12 10:04:00,81.9,76.2,29.97,East,79,9.2,9.2,83,0.00,CLR,,0.01,WeatherDisplay:10.37,2013-11-12 16:04:00,
2013-11-12 10:09:00,82.0,76.7,29.97,ENE,75,5.8,5.8,84,0.00,CLR,,0.01,WeatherDisplay:10.37,2013-11-12 16:09:00,
2013-11-12 10:14:00,81.8,76.5,29.97,East,92,10.4,10.4,84,0.00,CLR,,0.01,WeatherDisplay:10.37,2013-11-12 16:14:00,
2013-11-12 10:19:00,81.8,76.5,29.97,East,81,9.0,9.0,84,0.00,CLR,,0.01,WeatherDisplay:10.37,2013-11-12 16:19:00,
2013-11-12 10:24:00,81.8,76.1,29.97,East,87,10.4,10.4,83,0.00,CLR,,0.01,WeatherDisplay:10.37,2013-11-12 16:24:00,
2013-11-12 10:29:00,81.8,76.1,29.96,East,86,9.2,9.2,83,0.00,CLR,,0.01,WeatherDisplay:10.37,2013-11-12 16:29:00,
2013-11-12 10:34:00,81.8,76.5,29.96,East,82,8.1,8.1,84,0.00,CLR,,0.01,WeatherDisplay:10.37,2013-11-12 16:34:00,
2013-11-12 10:39:00,81.8,76.5,29.96,East,81,10.4,10.4,84,0.00,CLR,,0.01,WeatherDisplay:10.37,2013-11-12 16:39:00,
2013-11-12 10:44:00,81.7,76.4,29.96,East,85,9.2,9.2,84,0.00,CLR,,0.01,WeatherDisplay:10.37,2013-11-12 16:44:00,
2013-11-12 10:49:00,81.8,76.5,29.96,East,90,10.4,10.4,84,0.00,CLR,,0.01,WeatherDisplay:10.37,2013-11-12 16:49:00,
2013-11-12 10:54:00,82.0,77.0,29.96,East,92,11.5,11.5,85,0.00,CLR,,0.01,WeatherDisplay:10.37,2013-11-12 16:54:00,
2013-11-12 10:59:00,81.9,76.9,29.96,East,93,11.5,11.5,85,0.00,CLR,,0.01,WeatherDisplay:10.37,2013-11-12 16:59:00,
2013-11-12 11:04:00,81.9,76.9,29.95,East,93,11.5,11.5,85,0.00,CLR,,0.01,WeatherDisplay:10.37,2013-11-12 17:04:00,
2013-11-12 11:09:00,81.5,76.6,29.95,ESE,107,11.5,11.5,85,0.00,CLR,,0.01,WeatherDisplay:10.37,2013-11-12 17:09:00,
2013-11-12 11:14:00,81.6,76.6,29.95,ESE,103,6.9,6.9,85,0.00,CLR,,0.01,WeatherDisplay:10.37,2013-11-12 17:14:00,
2013-11-12 11:19:00,81.5,76.6,29.94,ESE,109,5.8,5.8,85,0.00,CLR,,0.01,WeatherDisplay:10.37,2013-11-12 17:19:00,
2013-11-12 11:24:00,81.5,76.6,29.94,ESE,104,6.0,6.0,85,0.00,CLR,,0.01,WeatherDisplay:10.37,2013-11-12 17:24:00,
2013-11-12 11:29:00,81.7,77.1,29.94,East,87,6.9,6.9,86,0.00,CLR,,0.01,WeatherDisplay:10.37,2013-11-12 17:29:00,
2013-11-12 11:34:00,81.5,76.9,29.93,East,90,5.8,5.8,86,0.00,CLR,,0.01,WeatherDisplay:10.37,2013-11-12 17:34:00,
2013-11-12 11:39:00,81.6,77.0,29.93,East,88,5.8,5.8,86,0.00,CLR,,0.01,WeatherDisplay:10.37,2013-11-12 17:39:00,
2013-11-12 11:44:00,81.9,77.6,29.93,East,85,5.8,5.8,87,0.00,CLR,,0.01,WeatherDisplay:10.37,2013-11-12 17:44:00,
2013-11-12 11:49:00,81.8,77.2,29.93,East,81,9.2,9.2,86,0.00,CLR,,0.01,WeatherDisplay:10.37,2013-11-12 17:49:00,
2013-11-12 11:54:00,81.9,77.3,29.93,East,81,8.1,8.1,86,0.00,CLR,,0.01,WeatherDisplay:10.37,2013-11-12 17:54:00,
2013-11-12 11:59:00,82.0,77.7,29.93,ENE,78,7.0,7.0,87,0.00,CLR,,0.01,WeatherDisplay:10.37,2013-11-12 17:59:00,
2013-11-12 12:04:00,82.0,77.4,29.93,East,79,5.8,5.8,86,0.00,CLR,,0.01,WeatherDisplay:10.37,2013-11-12 18:04:00,
2013-11-12 12:09:00,81.8,76.8,29.92,ENE,77,5.8,5.8,85,0.00,CLR,,0.01,WeatherDisplay:10.37,2013-11-12 18:09:00,
2013-11-12 12:14:00,81.9,76.9,29.92,East,81,4.6,4.6,85,0.00,CLR,,0.01,WeatherDisplay:10.37,2013-11-12 18:14:00,
2013-11-12 12:19:00,82.4,77.4,29.92,East,79,1.0,1.0,85,0.00,CLR,,0.01,WeatherDisplay:10.37,2013-11-12 18:19:00,
2013-11-12 12:24:00,82.5,77.2,29.92,ENE,65,5.8,5.8,84,0.00,CLR,,0.01,WeatherDisplay:10.37,2013-11-12 18:24:00,
2013-11-12 12:29:00,82.4,77.1,29.92,ENE,60,6.9,6.9,84,0.00,CLR,,0.01,WeatherDisplay:10.37,2013-11-12 18:29:00,
2013-11-12 12:34:00,82.3,76.6,29.92,ENE,62,6.0,6.0,83,0.00,CLR,,0.01,WeatherDisplay:10.37,2013-11-12 18:34:00,
2013-11-12 12:39:00,82.2,76.9,29.91,ENE,76,5.8,5.8,84,0.00,CLR,,0.01,WeatherDisplay:10.37,2013-11-12 18:39:00,
2013-11-12 12:44:00,82.3,76.6,29.91,ENE,60,6.0,6.0,83,0.00,CLR,,0.01,WeatherDisplay:10.37,2013-11-12 18:44:00,
2013-11-12 12:49:00,82.7,77.0,29.91,ENE,68,5.0,5.0,83,0.00,CLR,,0.01,WeatherDisplay:10.37,2013-11-12 18:49:00,
2013-11-12 12:54:00,82.7,77.0,29.90,ENE,71,6.9,6.9,83,0.00,CLR,,0.01,WeatherDisplay:10.37,2013-11-12 18:54:00,
2013-11-12 12:59:00,82.6,76.9,29.90,ENE,65,5.8,5.8,83,0.00,CLR,,0.01,WeatherDisplay:10.37,2013-11-12 18:59:00,
2013-11-12 13:04:00,82.6,76.5,29.90,ENE,58,7.0,7.0,82,0.00,CLR,,0.01,WeatherDisplay:10.37,2013-11-12 19:04:00,
2013-11-12 13:09:00,82.7,76.6,29.90,ENE,65,5.0,5.0,82,0.00,CLR,,0.01,WeatherDisplay:10.37,2013-11-12 19:09:00,
2013-11-12 13:14:00,82.5,76.4,29.90,ENE,75,6.9,6.9,82,0.00,CLR,,0.01,WeatherDisplay:10.37,2013-11-12 19:14:00,
2013-11-12 13:19:00,82.6,76.5,29.89,ENE,71,6.0,6.0,82,0.00,CLR,,0.01,WeatherDisplay:10.37,2013-11-12 19:19:00,
2013-11-12 13:24:00,82.3,75.9,29.89,ENE,78,6.9,6.9,81,0.00,CLR,,0.01,WeatherDisplay:10.37,2013-11-12 19:24:00,
2013-11-12 13:29:00,82.5,76.4,29.89,ENE,71,6.0,6.0,82,0.00,CLR,,0.01,WeatherDisplay:10.37,2013-11-12 19:29:00,
2013-11-12 13:34:00,82.5,76.4,29.89,ENE,70,9.2,9.2,82,0.00,CLR,,0.01,WeatherDisplay:10.37,2013-11-12 19:34:00,
2013-11-12 13:39:00,82.5,76.8,29.88,ENE,72,6.9,6.9,83,0.00,CLR,,0.01,WeatherDisplay:10.37,2013-11-12 19:39:00,
2013-11-12 13:44:00,82.3,76.6,29.88,ENE,76,8.1,8.1,83,0.00,CLR,,0.01,WeatherDisplay:10.37,2013-11-12 19:44:00,
2013-11-12 13:49:00,82.3,76.6,29.88,ENE,75,7.0,7.0,83,0.00,CLR,,0.01,WeatherDisplay:10.37,2013-11-12 19:49:00,
2013-11-12 13:54:00,82.5,77.2,29.88,ENE,68,7.0,7.0,84,0.00,CLR,,0.01,WeatherDisplay:10.37,2013-11-12 19:54:00,
2013-11-12 13:59:00,82.4,76.7,29.88,ENE,68,5.8,5.8,83,0.00,CLR,,0.01,WeatherDisplay:10.37,2013-11-12 19:59:00,
2013-11-12 14:04:00,82.4,77.1,29.88,ENE,75,7.0,7.0,84,0.00,CLR,,0.01,WeatherDisplay:10.37,2013-11-12 20:04:00,
2013-11-12 14:09:00,82.3,77.0,29.88,ENE,75,6.9,6.9,84,0.00,CLR,,0.01,WeatherDisplay:10.37,2013-11-12 20:09:00,
2013-11-12 14:14:00,82.3,77.0,29.87,ENE,71,6.9,6.9,84,0.00,CLR,,0.01,WeatherDisplay:10.37,2013-11-12 20:14:00,
2013-11-12 14:19:00,82.5,77.2,29.87,ENE,70,6.9,6.9,84,0.00,CLR,,0.01,WeatherDisplay:10.37,2013-11-12 20:19:00,
2013-11-12 14:24:00,82.6,77.3,29.87,ENE,63,7.0,7.0,84,0.00,CLR,,0.01,WeatherDisplay:10.37,2013-11-12 20:24:00,
2013-11-12 14:29:00,82.5,77.2,29.87,ENE,64,6.9,6.9,84,0.00,CLR,,0.01,WeatherDisplay:10.37,2013-11-12 20:29:00,
2013-11-12 14:34:00,82.7,77.4,29.87,ENE,71,6.9,6.9,84,0.00,CLR,,0.01,WeatherDisplay:10.37,2013-11-12 20:34:00,
2013-11-12 14:40:00,82.6,77.6,29.87,ENE,67,5.8,5.8,85,0.00,CLR,,0.01,WeatherDisplay:10.37,2013-11-12 20:40:00,
2013-11-12 14:45:00,82.8,77.8,29.87,ENE,72,7.0,7.0,85,0.00,CLR,,0.01,WeatherDisplay:10.37,2013-11-12 20:45:00,
2013-11-12 14:50:00,82.7,77.4,29.87,ENE,60,9.2,9.2,84,0.00,CLR,,0.01,WeatherDisplay:10.37,2013-11-12 20:50:00,
2013-11-12 14:55:00,82.7,77.4,29.87,ENE,63,8.1,8.1,84,0.00,CLR,,0.01,WeatherDisplay:10.37,2013-11-12 20:55:00,
2013-11-12 15:00:00,82.9,77.6,29.87,ENE,62,5.8,5.8,84,0.00,CLR,,0.01,WeatherDisplay:10.37,2013-11-12 21:00:00,
2013-11-12 15:05:00,82.7,77.4,29.87,ENE,58,7.0,7.0,84,0.00,CLR,,0.01,WeatherDisplay:10.37,2013-11-12 21:05:00,
2013-11-12 15:10:00,82.6,76.5,29.87,ENE,57,6.9,6.9,82,0.00,CLR,,0.01,WeatherDisplay:10.37,2013-11-12 21:10:00,
2013-11-12 15:15:00,82.8,76.7,29.87,ENE,58,7.0,7.0,82,0.00,CLR,,0.01,WeatherDisplay:10.37,2013-11-12 21:15:00,
2013-11-12 15:20:00,82.9,77.2,29.88,ENE,57,7.0,7.0,83,0.00,CLR,,0.01,WeatherDisplay:10.37,2013-11-12 21:20:00,
2013-11-12 15:25:00,82.9,77.2,29.88,NE,53,8.1,8.1,83,0.00,CLR,,0.01,WeatherDisplay:10.37,2013-11-12 21:25:00,
2013-11-12 15:30:00,83.0,77.3,29.88,NE,56,2.0,8.0,83,0.00,CLR,,0.01,WeatherDisplay:10.37,2013-11-12 21:30:00,
2013-11-12 15:35:00,82.9,77.2,29.88,NE,55,8.1,8.1,83,0.00,CLR,,0.01,WeatherDisplay:10.37,2013-11-12 21:35:00,
2013-11-12 15:40:00,83.0,77.3,29.88,ENE,61,6.9,6.9,83,0.00,CLR,,0.01,WeatherDisplay:10.37,2013-11-12 21:40:00,
2013-11-12 15:45:00,82.9,77.2,29.88,NE,51,3.0,8.0,83,0.00,CLR,,0.01,WeatherDisplay:10.37,2013-11-12 21:45:00,
2013-11-12 15:50:00,82.8,77.1,29.88,NE,50,5.8,5.8,83,0.00,CLR,,0.01,WeatherDisplay:10.37,2013-11-12 21:50:00,
2013-11-12 15:55:00,82.9,77.2,29.88,ENE,61,8.1,8.1,83,0.00,CLR,,0.01,WeatherDisplay:10.37,2013-11-12 21:55:00,
2013-11-12 16:00:00,82.9,77.2,29.88,ENE,61,6.0,8.0,83,0.00,CLR,,0.01,WeatherDisplay:10.37,2013-11-12 22:00:00,
2013-11-12 16:05:00,82.9,77.6,29.88,ENE,60,11.5,11.5,84,0.00,CLR,,0.01,WeatherDisplay:10.37,2013-11-12 22:05:00,
2013-11-12 16:10:00,82.8,78.2,29.88,ENE,59,7.0,12.0,86,0.00,CLR,,0.01,WeatherDisplay:10.37,2013-11-12 22:10:00,
2013-11-12 16:15:00,82.5,77.9,29.88,NE,46,10.4,10.4,86,0.00,CLR,,0.01,WeatherDisplay:10.37,2013-11-12 22:15:00,
2013-11-12 16:20:00,82.1,77.5,29.88,NE,50,6.0,12.0,86,0.00,CLR,,0.01,WeatherDisplay:10.37,2013-11-12 22:20:00,
2013-11-12 16:25:00,81.9,77.3,29.88,NE,42,6.0,12.0,86,0.00,CLR,,0.01,WeatherDisplay:10.37,2013-11-12 22:25:00,
2013-11-12 16:30:00,81.6,76.7,29.88,NE,43,8.0,12.0,85,0.00,CLR,,0.01,WeatherDisplay:10.37,2013-11-12 22:30:00,
2013-11-12 16:35:00,81.7,77.1,29.88,NE,43,6.0,10.0,86,0.00,CLR,,0.01,WeatherDisplay:10.37,2013-11-12 22:35:00,
2013-11-12 16:40:00,81.7,77.1,29.88,NE,45,7.0,10.0,86,0.00,CLR,,0.01,WeatherDisplay:10.37,2013-11-12 22:40:00,
2013-11-12 16:45:00,81.7,77.1,29.88,NE,52,8.1,8.1,86,0.00,CLR,,0.01,WeatherDisplay:10.37,2013-11-12 22:45:00,
2013-11-12 16:50:00,81.6,76.6,29.88,NE,44,5.0,10.0,85,0.00,CLR,,0.01,WeatherDisplay:10.37,2013-11-12 22:50:00,
2013-11-12 16:55:00,81.7,77.1,29.88,NE,41,8.1,8.1,86,0.00,CLR,,0.01,WeatherDisplay:10.37,2013-11-12 22:55:00,
2013-11-12 17:00:00,81.7,77.1,29.88,NE,47,6.0,10.0,86,0.00,CLR,,0.01,WeatherDisplay:10.37,2013-11-12 23:00:00,
2013-11-12 17:05:00,81.7,77.1,29.89,NE,36,9.2,9.2,86,0.00,CLR,,0.01,WeatherDisplay:10.37,2013-11-12 23:05:00,
2013-11-12 17:10:00,81.6,77.0,29.89,ENE,63,8.1,8.1,86,0.00,CLR,,0.01,WeatherDisplay:10.37,2013-11-12 23:10:00,
2013-11-12 17:15:00,81.6,77.0,29.89,NE,41,3.0,12.0,86,0.00,CLR,,0.01,WeatherDisplay:10.37,2013-11-12 23:15:00,
2013-11-12 17:20:00,81.6,77.0,29.89,NNE,24,5.8,5.8,86,0.00,CLR,,0.01,WeatherDisplay:10.37,2013-11-12 23:20:00,
2013-11-12 17:25:00,81.4,76.8,29.89,NE,41,3.5,3.5,86,0.00,CLR,,0.01,WeatherDisplay:10.37,2013-11-12 23:25:00,
2013-11-12 17:30:00,81.3,76.7,29.89,North,10,3.0,3.0,86,0.00,CLR,,0.01,WeatherDisplay:10.37,2013-11-12 23:30:00,
2013-11-12 17:35:00,81.2,76.6,29.89,NNE,22,2.0,5.0,86,0.00,CLR,,0.01,WeatherDisplay:10.37,2013-11-12 23:35:00,
2013-11-12 17:40:00,81.1,76.5,29.89,NNE,16,3.5,3.5,86,0.00,CLR,,0.01,WeatherDisplay:10.37,2013-11-12 23:40:00,
2013-11-12 17:45:00,81.1,76.9,29.90,NNE,14,0.0,4.0,87,0.00,CLR,,0.01,WeatherDisplay:10.37,2013-11-12 23:45:00,
2013-11-12 17:50:00,81.1,76.9,29.90,NNW,341,0.0,0.0,87,0.00,CLR,,0.01,WeatherDisplay:10.37,2013-11-12 23:50:00,
2013-11-12 17:55:00,81.0,76.8,29.90,North,353,0.0,0.0,87,0.00,CLR,,0.01,WeatherDisplay:10.37,2013-11-12 23:55:00,
2013-11-12 18:00:00,80.9,76.7,29.90,North,354,1.0,6.0,87,0.00,CLR,,0.01,WeatherDisplay:10.37,2013-11-13 00:00:00,
2013-11-12 18:05:00,80.8,76.6,29.90,NNE,13,0.0,0.0,87,0.00,CLR,,0.01,WeatherDisplay:10.37,2013-11-13 00:05:00,
2013-11-12 18:10:00,80.7,76.5,29.90,North,349,0.0,0.0,87,0.00,CLR,,0.01,WeatherDisplay:10.37,2013-11-13 00:10:00,
2013-11-12 18:15:00,80.6,76.4,29.90,North,354,0.0,1.0,87,0.00,CLR,,0.01,WeatherDisplay:10.37,2013-11-13 00:15:00,
2013-11-12 18:20:00,80.6,76.7,29.91,NNE,15,5.8,5.8,88,0.00,CLR,,0.01,WeatherDisplay:10.37,2013-11-13 00:20:00,
2013-11-12 18:25:00,80.7,76.8,29.91,NNE,31,3.5,3.5,88,0.00,CLR,,0.01,WeatherDisplay:10.37,2013-11-13 00:25:00,
2013-11-12 18:30:00,80.6,76.7,29.91,NNE,28,1.0,7.0,88,0.00,CLR,,0.01,WeatherDisplay:10.37,2013-11-13 00:30:00,
2013-11-12 18:35:00,80.9,77.0,29.92,NNE,26,3.0,9.0,88,0.00,CLR,,0.01,WeatherDisplay:10.37,2013-11-13 00:35:00,
2013-11-12 18:40:00,80.9,76.7,29.92,NE,36,6.9,6.9,87,0.00,CLR,,0.01,WeatherDisplay:10.37,2013-11-13 00:40:00,
2013-11-12 18:45:00,80.9,76.7,29.92,NNE,32,1.0,7.0,87,0.00,CLR,,0.01,WeatherDisplay:10.37,2013-11-13 00:45:00,
2013-11-12 18:50:00,80.9,76.7,29.92,NNE,25,5.0,5.0,87,0.00,CLR,,0.01,WeatherDisplay:10.37,2013-11-13 00:50:00,
2013-11-12 18:55:00,80.8,76.6,29.92,North,360,3.5,3.5,87,0.00,CLR,,0.01,WeatherDisplay:10.37,2013-11-13 00:55:00,
2013-11-12 19:00:00,80.8,76.6,29.93,NNE,12,1.0,9.0,87,0.00,CLR,,0.01,WeatherDisplay:10.37,2013-11-13 01:00:00,
2013-11-12 19:05:00,80.8,76.6,29.93,NNE,24,3.5,3.5,87,0.00,CLR,,0.01,WeatherDisplay:10.37,2013-11-13 01:05:00,
2013-11-12 19:10:00,80.7,76.5,29.93,NNE,14,5.8,5.8,87,0.00,CLR,,0.01,WeatherDisplay:10.37,2013-11-13 01:10:00,
2013-11-12 19:15:00,80.7,76.4,29.93,North,11,1.0,7.0,87,0.00,CLR,,0.01,WeatherDisplay:10.37,2013-11-13 01:15:00,
2013-11-12 19:20:00,80.6,76.7,29.93,NE,36,4.6,4.6,88,0.00,CLR,,0.01,WeatherDisplay:10.37,2013-11-13 01:20:00,
2013-11-12 19:25:00,80.6,76.7,29.93,North,6,3.0,9.0,88,0.00,CLR,,0.01,WeatherDisplay:10.37,2013-11-13 01:25:00,
2013-11-12 19:30:00,80.5,76.6,29.93,North,3,1.0,8.0,88,0.00,CLR,,0.01,WeatherDisplay:10.37,2013-11-13 01:30:00,
2013-11-12 19:35:00,80.5,76.6,29.93,North,358,6.9,6.9,88,0.00,CLR,,0.01,WeatherDisplay:10.37,2013-11-13 01:35:00,
2013-11-12 19:40:00,80.5,76.6,29.94,NNW,327,6.9,6.9,88,0.00,CLR,,0.01,WeatherDisplay:10.37,2013-11-13 01:40:00,
2013-11-12 19:45:00,80.5,76.6,29.94,North,350,2.0,8.0,88,0.00,CLR,,0.01,WeatherDisplay:10.37,2013-11-13 01:45:00,
2013-11-12 19:50:00,80.6,77.1,29.94,NNW,345,6.9,6.9,89,0.00,CLR,,0.01,WeatherDisplay:10.37,2013-11-13 01:50:00,
2013-11-12 19:55:00,80.6,77.1,29.94,NNW,348,3.0,7.0,89,0.00,CLR,,0.01,WeatherDisplay:10.37,2013-11-13 01:55:00,
2013-11-12 20:00:00,80.6,77.1,29.94,North,10,4.6,4.6,89,0.00,CLR,,0.01,WeatherDisplay:10.37,2013-11-13 02:00:00,
2013-11-12 20:05:00,80.5,77.0,29.94,North,1,1.0,6.0,89,0.00,CLR,,0.01,WeatherDisplay:10.37,2013-11-13 02:05:00,
2013-11-12 20:10:00,80.4,77.2,29.94,NNW,345,3.5,3.5,90,0.00,CLR,,0.01,WeatherDisplay:10.37,2013-11-13 02:10:00,
2013-11-12 20:15:00,80.3,77.1,29.94,NNW,345,0.0,0.0,90,0.00,CLR,,0.01,WeatherDisplay:10.37,2013-11-13 02:15:00,
2013-11-12 20:20:00,80.3,77.1,29.94,North,350,1.0,6.0,90,0.00,CLR,,0.01,WeatherDisplay:10.37,2013-11-13 02:20:00,
2013-11-12 20:25:00,80.3,77.1,29.94,North,356,0.0,5.0,90,0.00,CLR,,0.01,WeatherDisplay:10.37,2013-11-13 02:25:00,
2013-11-12 20:30:00,80.2,77.0,29.95,North,355,0.0,0.0,90,0.00,CLR,,0.01,WeatherDisplay:10.37,2013-11-13 02:30:00,
2013-11-12 20:35:00,80.2,77.0,29.95,North,351,2.3,2.3,90,0.00,CLR,,0.01,WeatherDisplay:10.37,2013-11-13 02:35:00,
2013-11-12 20:40:00,80.1,76.9,29.95,North,9,0.0,0.0,90,0.00,CLR,,0.01,WeatherDisplay:10.37,2013-11-13 02:40:00,
2013-11-12 20:45:00,80.0,77.2,29.95,North,6,0.0,0.0,91,0.00,CLR,,0.01,WeatherDisplay:10.37,2013-11-13 02:45:00,
2013-11-12 20:50:00,80.0,77.1,29.95,NE,41,4.6,0.0,91,0.00,CLR,,0.01,WeatherDisplay:10.37,2013-11-13 02:50:00,
2013-11-12 20:55:00,79.9,77.0,29.95,NNE,22,0.0,0.0,91,0.00,CLR,,0.01,WeatherDisplay:10.37,2013-11-13 02:55:00,
2013-11-12 21:00:00,79.8,76.9,29.95,North,358,3.5,3.5,91,0.00,CLR,,0.01,WeatherDisplay:10.37,2013-11-13 03:00:00,
2013-11-12 21:05:00,79.7,76.9,29.95,North,4,0.0,4.0,91,0.00,CLR,,0.01,WeatherDisplay:10.37,2013-11-13 03:05:00,
2013-11-12 21:10:00,79.7,76.8,29.95,North,357,3.5,3.5,91,0.00,CLR,,0.01,WeatherDisplay:10.37,2013-11-13 03:10:00,
2013-11-12 21:15:00,79.7,76.8,29.96,North,353,1.0,8.0,91,0.00,CLR,,0.01,WeatherDisplay:10.37,2013-11-13 03:15:00,
2013-11-12 21:20:00,79.7,76.8,29.96,NNE,17,3.5,3.5,91,0.00,CLR,,0.01,WeatherDisplay:10.37,2013-11-13 03:20:00,
2013-11-12 21:25:00,79.7,76.8,29.96,North,2,1.0,9.0,91,0.00,CLR,,0.01,WeatherDisplay:10.37,2013-11-13 03:25:00,
2013-11-12 21:30:00,79.6,76.7,29.96,North,1,0.0,9.0,91,0.00,CLR,,0.01,WeatherDisplay:10.37,2013-11-13 03:30:00,
2013-11-12 21:35:00,79.6,76.7,29.96,North,4,1.0,10.0,91,0.00,CLR,,0.01,WeatherDisplay:10.37,2013-11-13 03:35:00,
2013-11-12 21:40:00,79.6,76.7,29.96,North,10,5.0,5.0,91,0.00,CLR,,0.01,WeatherDisplay:10.37,2013-11-13 03:40:00,
2013-11-12 21:45:00,79.6,76.7,29.96,NNE,14,3.0,10.0,91,0.00,CLR,,0.01,WeatherDisplay:10.37,2013-11-13 03:45:00,
2013-11-12 21:50:00,79.5,76.6,29.96,NNE,16,8.1,8.1,91,0.00,CLR,,0.01,WeatherDisplay:10.37,2013-11-13 03:50:00,
2013-11-12 21:55:00,79.6,76.7,29.95,North,8,2.0,8.0,91,0.00,CLR,,0.01,WeatherDisplay:10.37,2013-11-13 03:55:00,
2013-11-12 22:00:00,79.6,76.7,29.95,North,6,2.0,9.0,91,0.00,CLR,,0.01,WeatherDisplay:10.37,2013-11-13 04:00:00,
2013-11-12 22:05:00,79.7,76.8,29.95,North,359,5.8,5.8,91,0.00,CLR,,0.01,WeatherDisplay:10.37,2013-11-13 04:05:00,
2013-11-12 22:10:00,79.7,76.8,29.95,North,352,0.0,5.0,91,0.00,CLR,,0.01,WeatherDisplay:10.37,2013-11-13 04:10:00,
2013-11-12 22:15:00,79.6,76.7,29.96,NNW,346,3.5,3.5,91,0.00,CLR,,0.01,WeatherDisplay:10.37,2013-11-13 04:15:00,
2013-11-12 22:20:00,79.6,76.7,29.95,NE,36,6.9,6.9,91,0.00,CLR,,0.01,WeatherDisplay:10.37,2013-11-13 04:20:00,
2013-11-12 22:25:00,79.6,76.7,29.95,North,358,2.0,10.0,91,0.00,CLR,,0.01,WeatherDisplay:10.37,2013-11-13 04:25:00,
2013-11-12 22:30:00,79.5,76.6,29.95,North,5,9.2,9.2,91,0.00,CLR,,0.01,WeatherDisplay:10.37,2013-11-13 04:30:00,
2013-11-12 22:35:00,79.5,76.6,29.95,North,358,5.8,5.8,91,0.00,CLR,,0.01,WeatherDisplay:10.37,2013-11-13 04:35:00,
2013-11-12 22:40:00,79.4,76.5,29.95,North,1,5.8,5.8,91,0.00,CLR,,0.01,WeatherDisplay:10.37,2013-11-13 04:40:00,
2013-11-12 22:45:00,79.3,76.4,29.95,NNW,337,9.2,9.2,91,0.00,CLR,,0.01,WeatherDisplay:10.37,2013-11-13 04:45:00,
2013-11-12 22:50:00,79.3,76.4,29.94,North,359,1.0,5.0,91,0.00,CLR,,0.01,WeatherDisplay:10.37,2013-11-13 04:50:00,
2013-11-12 22:55:00,79.3,76.8,29.95,North,358,1.0,7.0,92,0.00,CLR,,0.01,WeatherDisplay:10.37,2013-11-13 04:55:00,
2013-11-12 23:00:00,79.3,76.8,29.95,NNW,344,4.6,4.6,92,0.00,CLR,,0.01,WeatherDisplay:10.37,2013-11-13 05:00:00,
2013-11-12 23:01:00,79.3,76.8,29.95,NNE,14,4.6,4.6,92,0.00,CLR,,0.01,WeatherDisplay:10.37,2013-11-13 05:01:00,
2013-11-12 23:06:00,79.5,77.0,29.95,ENE,66,11.0,11.0,92,0.00,CLR,,0.01,WeatherDisplay:10.37,2013-11-13 05:06:00,
2013-11-12 23:11:00,78.1,74.6,29.96,East,89,19.6,19.6,89,0.00,,,0.01,WeatherDisplay:10.37,2013-11-13 05:11:00,
2013-11-12 23:16:00,78.1,74.9,29.96,NE,54,7.0,7.0,90,0.03,RA,,0.05,WeatherDisplay:10.37,2013-11-13 05:16:00,
2013-11-12 23:21:00,77.7,74.5,29.96,North,6,2.3,2.3,90,0.11,RA,,0.12,WeatherDisplay:10.37,2013-11-13 05:21:00,
2013-11-12 23:26:00,77.3,74.1,29.95,NNW,329,0.0,0.0,90,0.13,RA,,0.14,WeatherDisplay:10.37,2013-11-13 05:26:00,
2013-11-12 23:31:00,77.1,73.9,29.95,NNW,329,0.0,0.0,90,0.14,RA,,0.15,WeatherDisplay:10.37,2013-11-13 05:31:00,
2013-11-12 23:36:00,76.9,73.7,29.95,NNW,347,3.5,3.5,90,0.14,RA,,0.15,WeatherDisplay:10.37,2013-11-13 05:36:00,
2013-11-12 23:41:00,76.7,73.5,29.95,North,360,3.5,3.5,90,0.15,RA,,0.16,WeatherDisplay:10.37,2013-11-13 05:41:00,
2013-11-12 23:46:00,76.2,73.1,29.95,NNE,29,0.0,0.0,90,0.15,RA,,0.16,WeatherDisplay:10.37,2013-11-13 05:46:00,
2013-11-12 23:51:00,76.1,73.0,29.95,North,4,2.0,2.0,90,0.15,CLR,,0.16,WeatherDisplay:10.37,2013-11-13 05:51:00,
2013-11-12 23:56:00,76.2,73.4,29.94,NNE,12,3.5,3.5,91,0.15,CLR,,0.16,WeatherDisplay:10.37,2013-11-13 05:56:00,